Regional Weather Roundup
Issued by NWS

Home | Current Version | Previous Version | Graphics & Text | Print | Product List | Glossary On
Versions: 1 2 3 4 5 6 7 8 9 10 11 12 13 14 15 16 17 18 19 20 21 22 23 24 25 26 27 28 29 30 31 32 33 34 35 36 37 38 39 40 41 42 43 44 45 46 47 48 49 50
000
ASUS43 KDTX 021710
RWRMI
MICHIGAN HOURLY REGIONAL WEATHER ROUNDUP
NATIONAL WEATHER SERVICE DETROIT/PONTIAC MI
100 PM EDT TUE SEP 02 2014

NOTE: "FAIR" INDICATES FEW OR NO CLOUDS BELOW 12,000 FEET WITH NO
SIGNIFICANT WEATHER AND/OR OBSTRUCTION TO VISIBILITY.

MIZ047>049-052>055-059>063-066>070-074>076-081>083-021800-
SOUTHEAST LOWER MICHIGAN

CITY           SKY/WX    TMP DP  RH WIND       PRES   REMARKS
ADRIAN         CLOUDY    70  67  90 SW10      29.91R
ALMA           MOSUNNY   74  59  58 W9        29.87F
ANN ARBOR      CLOUDY    73  67  81 SW9       29.87F
BAD AXE        MOSUNNY   75  61  61 W13       29.85F
DETROIT CITY   RAIN      72  68  87 SW9       29.87S FOG
DETROIT        LGT RAIN  69  67  93 S13       29.88S FOG
FLINT          PTSUNNY   79  62  56 NW9       29.86F
GROSSE ILE     DRIZZLE   70  66  88 SW3       29.87S
HILLSDALE      CLOUDY    74  69  85 W9        29.91S
HOWELL         PTSUNNY   74  61  63 W9        29.88S

CITY           SKY/WX    TMP DP  RH WIND       PRES   REMARKS
JACKSON        PTSUNNY   73  63  70 NW9       29.89F
LAMBERTVILLE   HVY RAIN  68  64  88 SW7       29.90S
LANSING        PTSUNNY   73  59  61 W9        29.89F
LAPEER         NOT AVBL
MASON          PTSUNNY   74  61  64 W8        29.89S
MONROE         RAIN      70  66  88 SW8       29.87F
MT. CLEMENS    PTSUNNY   74  68  82 SW5       29.84F
PONTIAC        PTSUNNY   76  63  64 W10       29.86F
PORT HOPE        N/A     71  65  81 NW8       29.82F
PORT HURON     CLOUDY    73  68  83 MISG      29.85F
TRI CITIES     SUNNY     76  59  55 W12       29.86F
YPSILANTI      LGT RAIN  72  67  84 SW10G21   29.87F
$$
MIZ043>046-050>051-056>058-064>065-071>073-077>080-021800-
SOUTHWEST LOWER MICHIGAN

CITY           SKY/WX    TMP DP  RH WIND       PRES   REMARKS
BATTLE CREEK   CLOUDY    73  62  68 W8        29.91S
BENTON HARBOR  PTSUNNY   75  63  66 W7        29.90F
BIG RAPIDS     MOSUNNY   75  56  51 NW9       29.89R
COLDWATER      RAIN      72  68  87 W12       29.92R
HOLLAND        MOSUNNY   77  60  55 W6        29.90F
GRAND RAPIDS   PTSUNNY   76  62  62 W10       29.90S
KALAMAZOO      CLOUDY    74  62  66 W7        29.91S
MARSHALL       CLOUDY    75  63  66 W9G17     29.89F
MUSKEGON       PTSUNNY   77  55  46 NW6       29.89S
$$
MIZ016>042-021800-
NORTHERN LOWER MICHIGAN

CITY           SKY/WX    TMP DP  RH WIND       PRES   REMARKS
ALPENA         MOSUNNY   73  56  54 W9        29.83F
BEAVER ISLAND  PTSUNNY   70  61  72 SW9       29.84F
BELLAIRE       PTSUNNY   73  54  51 W6        29.85S
CADILLAC       PTSUNNY   72  58  60 W13G18    29.89S
CHARLEVOIX     PTSUNNY   69  62  79 W9        29.88F
FRANKFORT      CLOUDY    69  60  73 W3        29.88S
GAYLORD        MOSUNNY   70  51  51 W12       29.87S
GRAYLING       PTSUNNY   74  54  49 W10G17    29.87F
HARBOR SPRINGS MOSUNNY   71  61  72 W9G18     29.84F
HOUGHTON LAKE  PTSUNNY   75  54  47 W10       29.87F
MANISTEE       PTSUNNY   72  55  56 W8        29.89S
OSCODA         PTSUNNY   76  59  56 W8        29.82F
PELLSTON       MOSUNNY   71  55  56 W12G21    29.83F
TRAVERSE CITY  PTSUNNY   74  54  49 W10       29.85S
$$
MIZ007>008-015-021800-
EASTERN UPPER MICHIGAN

CITY           SKY/WX    TMP DP  RH WIND       PRES   REMARKS
KINROSS        MOSUNNY   72  55  56 W9        29.81F
MACKINAC ISLAN MOSUNNY   65  61  87 SW7       29.83S
NEWBERRY       MOSUNNY   71  56  58 W9G18     29.82S
S. S. MARIE    SUNNY     70  57  63 W10       29.81S
$$
MIZ004>006-011>014-085-021800-
CENTRAL UPPER MICHIGAN

CITY           SKY/WX    TMP DP  RH WIND       PRES   REMARKS
MANISTIQUE     PTSUNNY   73  56  54 SW7       29.82F
ESCANABA       PTSUNNY   66  57  72 S8        29.83S
MENOMINEE      CLOUDY    64  57  77 W5        29.84F
SAWYER-GWINN   SUNNY     68  55  64 W10       29.83S
$$
MIZ001>003-009>011-084-021800-
WESTERN UPPER MICHIGAN

CITY           SKY/WX    TMP DP  RH WIND       PRES   REMARKS
IRON MOUNTAIN  CLOUDY    69  54  58 W9        29.83F
HOUGHTON       MOSUNNY   70  54  56 W14       29.80S
COPPER HARBOR    N/A     71  52  50 NW9       29.77S
$$

ABBREVIATIONS USED IN REMARKS
   TC - TEMPERATURE IN CELSIUS
  WCI - WIND CHILL INDEX
   HX - HEAT INDEX
  VSB - VISIBILITY



USA.gov is the U.S. government's official web portal to all federal, state and local government web resources and services.